カタログに戻る

ORBCOMM FM 117

運用中通信LEO
NORAD 41188·PAYLOAD·🇺🇸 United States

打ち上げ Dec 22, 2015 から Cape Canaveral Space Force Station

Loading…

次のパス (今後24時間)

TLE

最新Source: Space-Track

元期: Sep 14, 2026, 14:59 UTC

1 41188U 15081K   26257.62467241  .00000406  00000-0  12180-3 0  9996
2 41188  47.0005 117.9146 0003027 260.4873  99.5671 14.58961336573188

AllMySatでORBCOMM FM 117をリアルタイム追跡

Download on the App Store